Location: Saint-Rémy-en-Mauges
(47.2685°N, 1.0792°W)
Time: 06:13:55
(UTC+01:00)

ISS - Visible Passes

Search period start: 02 December 2023 00:00
Search period end: 12 December 2023 00:00
Orbit: 416 x 417 km, 51.6° (Epoch: 01 December)

Date Brightness Start Highest point End Pass type
(mag) Time Alt. Az. Time Alt. Az. Time Alt. Az.
02 Dec -3.3 19:03:54 10° WNW 19:07:13 59° SSW 19:08:24 34° SE visible
03 Dec -3.8 18:15:24 10° WNW 18:18:47 88° SSW 18:22:08 10° ESE visible
03 Dec -1.1 19:52:53 10° W 19:55:08 17° SW 19:55:29 17° SW visible
04 Dec -1.6 19:03:57 10° W 19:06:49 26° SW 19:09:40 10° SSE visible
05 Dec -2.4 18:15:13 10° WNW 18:18:25 40° SW 18:21:34 10° SE visible
06 Dec -0.4 19:04:56 10° WSW 19:06:04 11° SW 19:07:12 10° SSW visible
07 Dec -0.7 18:15:19 10° W 18:17:41 18° SW 18:20:03 10° S visible
